Location: Moscow
(30.9132°N, 94.8252°W)
Time: 07:53:14
(UTC+00:00)

OAO 2 Rocket - Pass Details

Date: 15 November 2025
Orbit: 668 x 735 km, 35.0° (Epoch: 13 December)

Event Time Altitude Azimuth Distance (km) Brightness Sun altitude
Rises 01:27:40 0° 282° (WNW) 3,070 7.7 -27.0°
Reaches altitude 10° 01:30:06 10° 287° (WNW) 2,164 6.7 -27.5°
Enters shadow 01:34:08 48° 325° (NW) 930 4.0 -28.4°
